Flag for Marshall Islands Weather past 2 weeks in Kwajalein, Marshall Islands

Now
81 °F

Clear.


Feels Like: 86 °F
Forecast: 80 / 87 °F
Wind: No wind

Location: Kwajalein / Bucholz

Current Time: Jul 7, 2015 at 2:34:55 AM

Latest Report: Jul 7, 2015 at 2:00 AM


Visibility: 10 mi

Pressure: 29.83 "Hg

Humidity: 82%

Dew point: 74 °F

Location of KwajaleinLocation

Historic Weather in Kwajalein — Graph

°F

Kwajalein temperature yesterday

Maximum temperature yesterday: 88 °F (at 3:20 PM)
Minimum temperature yesterday: 79 °F (at 3:20 AM)
Average temperature yesterday: 83 °F

Past Weeks' High & Low Weather Summary

 TemperatureHumidityPressure
High89 °F (Jun 23, 2:00 PM)93% (Jun 29, 7:00 AM)29.89 "Hg (Jun 29, 7:00 AM)
Low76 °F (Jun 29, 6:00 PM)59% (Jun 23, 2:00 PM)29.64 "Hg (Jul 4, 5:00 PM)
Average83 °F77%29.79 "Hg
* Reported Jun 22 1:00 AM — Jul 7 1:20 AM, Kwajalein, Weather by CustomWeather, © 2015

Note: Actual official high and low records may vary slightly from our data, if they occured in-between our weather recording intervals... More about our weather records

Advertising

Kwajalein weather history for previous 24 hours

 ConditionsComfort  
Time TempWeatherWind HumidityBarometerVisibility
1:20 AM
Tue, Jul 7
80 °FPassing clouds.3 mph83%29.84 "Hg10 mi
1:00 AM80 °FPassing clouds.3 mph83%29.85 "Hg10 mi
12:40 AM80 °FPartly cloudy.No wind83%29.85 "Hg10 mi
12:20 AM80 °FPassing clouds.3 mph83%29.86 "Hg10 mi
12:00 AM80 °FClear.No wind83%29.86 "Hg10 mi
11:40 PM
Mon, Jul 6
80 °FClear.No wind82%29.87 "Hg10 mi
11:20 PM80 °FPassing clouds.No wind82%29.89 "Hg10 mi
11:00 PM80 °FPassing clouds.3 mph82%29.87 "Hg10 mi
10:40 PM80 °FPassing clouds.No wind83%29.88 "Hg10 mi
10:20 PM80 °FPassing clouds.7 mph83%29.87 "Hg10 mi
10:00 PM80 °FPassing clouds.7 mph82%29.87 "Hg10 mi
9:20 PM80 °FDrizzle. Mostly cloudy.8 mph82%29.86 "Hg10 mi
9:00 PM81 °FLight rain. Mostly cloudy.12 mph81%29.87 "Hg10 mi
8:40 PM81 °FPartly cloudy.12 mph80%29.87 "Hg10 mi
8:20 PM81 °FPassing clouds.10 mph81%29.86 "Hg10 mi
8:00 PM81 °FPassing clouds.14 mph80%29.85 "Hg10 mi
7:40 PM81 °FPassing clouds.12 mph80%29.84 "Hg10 mi
7:20 PM82 °FPassing clouds.14 mph79%29.83 "Hg10 mi
7:00 PM82 °FMostly cloudy.16 mph77%29.83 "Hg10 mi
6:40 PM83 °FRain. Cloudy.16 mph75%29.83 "Hg7 mi
6:20 PM84 °FCloudy.16 mph73%29.83 "Hg10 mi
6:00 PM85 °FBroken clouds.18 mph72%29.82 "Hg10 mi
5:40 PM85 °FScattered clouds.15 mph70%29.81 "Hg10 mi
5:20 PM86 °FScattered clouds.13 mph69%29.80 "Hg10 mi
5:00 PM86 °FPartly sunny.12 mph68%29.80 "Hg10 mi
4:40 PM86 °FBroken clouds.12 mph67%29.79 "Hg10 mi
4:20 PM87 °FCloudy.12 mph66%29.80 "Hg10 mi
4:00 PM87 °FPartly sunny.8 mph65%29.80 "Hg10 mi
3:20 PM88 °FScattered clouds.7 mph64%29.80 "Hg10 mi
3:00 PM87 °FScattered clouds.8 mph64%29.81 "Hg10 mi
2:40 PM87 °FSunny.9 mph65%29.81 "Hg10 mi
2:20 PM87 °FSunny.7 mph65%29.82 "Hg10 mi
2:00 PM87 °FSunny.6 mph66%29.82 "Hg10 mi
1:40 PM87 °FSunny.7 mph67%29.82 "Hg10 mi
1:20 PM87 °FSunny.7 mph67%29.83 "Hg10 mi
1:00 PM86 °FSunny.6 mph68%29.83 "Hg10 mi
12:40 PM86 °FSunny.6 mph69%29.84 "Hg10 mi
12:20 PM86 °FSunny.7 mph70%29.84 "Hg10 mi
12:00 PM86 °FSunny.7 mph72%29.85 "Hg10 mi
11:40 AM85 °FScattered clouds.7 mph73%29.85 "Hg10 mi
11:20 AM85 °FScattered clouds.7 mph74%29.85 "Hg10 mi
11:00 AM85 °FScattered clouds.7 mph76%29.86 "Hg10 mi
10:40 AM85 °FScattered clouds.7 mph76%29.86 "Hg10 mi
10:20 AM84 °FSunny.7 mph77%29.86 "Hg10 mi
10:00 AM84 °FScattered clouds.8 mph77%29.86 "Hg7 mi
9:20 AM84 °FSunny.6 mph78%29.85 "Hg7 mi
9:00 AM83 °FSunny.7 mph79%29.84 "Hg7 mi
8:40 AM83 °FSunny.7 mph80%29.83 "Hg7 mi
8:20 AM82 °FSunny.8 mph81%29.82 "Hg7 mi
8:00 AM82 °FSunny.10 mph82%29.82 "Hg7 mi
7:20 AM82 °FScattered clouds.8 mph84%29.81 "Hg7 mi
7:00 AM82 °FScattered clouds.9 mph84%29.80 "Hg7 mi
6:20 AM82 °FPassing clouds.9 mph82%29.79 "Hg7 mi
6:00 AM82 °FPassing clouds.9 mph83%29.79 "Hg7 mi
5:40 AM81 °FClear.8 mph84%29.78 "Hg7 mi
5:20 AM81 °FClear.7 mph85%29.78 "Hg10 mi
5:00 AM81 °FClear.8 mph86%29.78 "Hg7 mi
4:20 AM81 °FClear.6 mph88%29.78 "Hg7 mi
4:00 AM80 °FClear.6 mph87%29.78 "Hg7 mi
3:20 AM79 °FClear.7 mph85%29.78 "Hg10 mi
3:00 AM80 °FClear.8 mph84%29.78 "Hg7 mi
2:20 AM81 °FPassing clouds.3 mph81%29.79 "Hg7 mi
2:00 AM81 °FHeavy rain. Overcast.13 mph80%29.80 "Hg3 mi
Weather by CustomWeather, © 2015

See weather overviewHow to use our weather pages